This is the latest recevied weather packets stored in our database for station/object W2SRH. If no packets are shown the sender has not sent any weather packets the latest 10 day(s).
| Time | Temp. | Humidity | Pressure | Rain* | Wind** | Luminosity | Snow |
|---|---|---|---|---|---|---|---|
| 1788530971 | 26.67° C | 69% | 1004.2 hPa | 0 mm | 0.89 m/s, 344° | - | - |
| 1788530943 | 27.22° C | 67% | 1004.2 hPa | 0 mm | 1.34 m/s, 313° | - | - |
| 1788530344 | 27.22° C | 69% | 1004.3 hPa | 0 mm | 0.89 m/s, 321° | - | - |
| 1788529744 | 26.67° C | 69% | 1004.2 hPa | 0 mm | 0.89 m/s, 344° | - | - |
| 1788529165 | 26.67° C | 71% | 1004.3 hPa | 0 mm | 1.79 m/s, 322° | - | - |
| 1788529037 | 26.11° C | 74% | 1004.1 hPa | 0 mm | 1.79 m/s, 341° | - | - |
| 1788528545 | 26.67° C | 72% | 1004.1 hPa | 0 mm | 1.79 m/s, 304° | - | - |
| 1788527944 | 26.11° C | 73% | 1004.2 hPa | 0 mm | 2.24 m/s, 330° | - | - |
| 1788527343 | 26.11° C | 74% | 1004.1 hPa | 0 mm | 1.79 m/s, 341° | - | - |
| 1788527129 | 25.56° C | 77% | 1004.1 hPa | 0 mm | 1.79 m/s, 311° | - | - |
| 1788527119 | 25° C | 78% | 1004.3 hPa | 0 mm | 2.24 m/s, 293° | - | - |
| 1788526743 | 25.56° C | 76% | 1004 hPa | 0 mm | 2.24 m/s, 307° | - | - |
| 1788526144 | 25.56° C | 77% | 1004.1 hPa | 0 mm | 1.79 m/s, 311° | - | - |
| 1788525544 | 25° C | 78% | 1004.3 hPa | 0 mm | 2.24 m/s, 293° | - | - |
| 1788524943 | 25° C | 79% | 1004 hPa | 0 mm | 2.68 m/s, 309° | - | - |
| 1788524345 | 24.44° C | 80% | 1004 hPa | 0 mm | 1.79 m/s, 318° | - | - |
| 1788523749 | 24.44° C | 81% | 1003.9 hPa | 0 mm | 2.24 m/s, 298° | - | - |
| 1788523278 | 23.89° C | 84% | 1004 hPa | 0 mm | 2.24 m/s, 302° | - | - |
| 1788523144 | 23.89° C | 83% | 1003.9 hPa | 0 mm | 1.79 m/s, 324° | - | - |
| 1788522545 | 23.89° C | 83% | 1003.8 hPa | 0 mm | 1.34 m/s, 308° | - | - |
| 1788521986 | 23.89° C | 84% | 1004 hPa | 0 mm | 2.24 m/s, 302° | - | - |
| 1788521944 | 23.89° C | 84% | 1004 hPa | 0 mm | 2.24 m/s, 302° | - | - |
| 1788521352 | 23.89° C | 85% | 1003.3 hPa | 0 mm | 1.79 m/s, 310° | - | - |
| 1788521345 | 23.33° C | 85% | 1003.7 hPa | 0 mm | 1.34 m/s, 304° | - | - |
| 1788520771 | 23.33° C | 85% | 1003.6 hPa | 0 mm | 2.24 m/s, 294° | - | - |
* Rain latest hour (hover to see other rain measurements)
** Current wind speed in m/s (hover to see current wind gust speed)